GW3736 Weather Reports


time (UTC)temp
F
wind
direction
speed
knots
gust
knots
rain 1hr
in
rain 24hr
in
rain mn
in
humidity
%
barometer
mb
20260901000524 76 150 3.5 7.0 0.00 0.02 0.02 80 1010.1
20260831235520 76 149 3.5 7.8 0.00 0.02 0.02 80 1010.1
20260831234518 76 151 3.5 9.6 0.00 0.02 0.02 80 1010.2
20260831233532 76 149 3.5 7.8 0.00 0.02 0.02 80 1010.2
20260831232609 76 153 1.7 5.2 0.00 0.02 0.02 80 1010.4
20260831231525 76 160 1.7 3.5 0.00 0.02 0.02 81 1010.7
20260831230521 76 157 1.7 5.2 0.00 0.02 0.02 81 1010.8
20260831225517 76 153 1.7 3.5 0.00 0.02 0.02 81 1010.9
20260831224533 76 152 1.7 5.2 0.00 0.02 0.02 81 1011.2
20260831223529 76 162 0.9 5.2 0.00 0.02 0.02 81 1011.3
20260831222525 76 165 1.7 6.1 0.00 0.02 0.02 81 1011.3
20260831221521 76 150 3.5 7.0 0.00 0.02 0.02 81 1010.6
20260831220519 76 149 3.5 7.0 0.00 0.02 0.02 80 1010.6
20260831215534 76 149 4.3 9.6 0.00 0.02 0.02 80 1010.7
20260831214530 76 150 3.5 7.0 0.00 0.03 0.02 80 1010.8
20260831213526 76 152 4.3 8.7 0.00 0.03 0.02 80 1010.7
20260831212542 76 146 4.3 7.8 0.00 0.03 0.02 80 1011.1
20260831211518 76 147 4.3 9.6 0.00 0.03 0.02 81 1011.1
20260831210535 77 146 4.3 7.8 0.00 0.04 0.02 81 1011.2
20260831205530 77 146 4.3 8.7 0.00 0.04 0.02 81 1011.5
20260831204527 77 148 3.5 7.8 0.00 0.04 0.02 81 1011.7
20260831203525 77 147 3.5 6.1 0.00 0.04 0.02 81 1011.8
20260831202519 77 144 5.2 11.3 0.00 0.04 0.02 81 1011.6
20260831201555 78 145 6.1 9.6 0.00 0.04 0.02 82 1012.1
20260831200531 77 148 4.3 7.8 0.00 0.04 0.02 83 1012.5
20260831195609 77 149 2.6 6.1 0.00 0.04 0.02 83 1012.6
20260831194524 76 149 2.6 3.5 0.00 0.04 0.02 83 1012.8
20260831193520 76 149 0.9 5.2 0.00 0.04 0.02 83 1012.7
20260831192516 76 149 1.7 3.5 0.00 0.04 0.02 83 1012.6
20260831191532 76 149 1.7 5.2 0.00 0.04 0.02 83 1012.7
20260831190528 76 150 1.7 2.6 0.00 0.04 0.02 82 1012.4
20260831185524 76 150 0.9 2.6 0.00 0.04 0.02 81 1013.1
20260831184521 77 151 1.7 5.2 0.00 0.04 0.02 81 1013.1
20260831183517 77 151 1.7 2.6 0.00 0.04 0.02 83 1012.7
20260831182535 77 151 1.7 2.6 0.00 0.04 0.02 83 1012.6
20260831181550 77 151 1.7 3.5 0.00 0.04 0.02 83 1012.3
20260831180545 76 152 0.9 1.7 0.02 0.04 0.02 83 1012.6
20260831175521 77 152 1.7 2.6 0.02 0.04 0.02 83 1012.5
20260831174539 77 154 0.9 1.7 0.02 0.04 0.02 82 1012.8
20260831173533 76 155 0.0 1.7 0.02 0.06 0.02 82 1012.5
20260831172530 77 155 0.0 0.9 0.02 0.06 0.02 80 1012.4
20260831171526 77 156 1.7 2.6 0.02 0.06 0.02 79 1012.5
20260831170542 78 159 0.0 0.9 0.00 0.04 0.00 79 1013.2
20260831165518 78 192 1.7 3.5 0.00 0.05 0.00 79 1013.6
20260831164535 78 184 1.7 5.2 0.00 0.07 0.00 81 1013.8
20260831163552 78 183 2.6 3.5 0.00 0.07 0.00 84 1013.6
20260831162527 77 178 1.7 5.2 0.00 0.08 0.00 85 1013.4
20260831161543 77 180 1.7 3.5 0.00 0.10 0.00 86 1013.4
20260831160541 76 174 1.7 3.5 0.00 0.10 0.00 87 1013.4
20260831155515 75 161 1.7 2.6 0.00 0.10 0.00 88 1013.4
20260831154532 74 173 1.7 3.5 0.00 0.11 0.00 88 1013.4
20260831153528 74 157 0.9 2.6 0.00 0.11 0.00 88 1013.3
20260831152524 74 157 0.9 0.9 0.00 0.11 0.00 88 1013.0
20260831151520 73 154 1.7 2.6 0.00 0.12 0.00 88 1013.0
20260831150516 73 152 0.9 2.6 0.00 0.13 0.00 88 1013.0
20260831145532 73 0.0 0.0 0.00 0.13 0.00 88 1013.0
20260831144528 73 152 0.9 1.7 0.00 0.14 0.00 88 1013.0
20260831143524 73 152 0.9 1.7 0.00 0.15 0.00 88 1012.9
20260831142601 73 152 0.9 2.6 0.00 0.15 0.00 88 1012.7
20260831141516 72 152 1.7 2.6 0.00 0.17 0.00 88 1012.7
20260831140533 72 155 0.9 2.6 0.00 0.19 0.00 88 1012.8
20260831135549 72 153 1.7 2.6 0.00 0.20 0.00 88 1012.5
20260831134525 72 157 0.9 2.6 0.00 0.21 0.00 88 1012.8
20260831133521 72 154 1.7 3.5 0.00 0.23 0.00 88 1012.6
20260831132519 72 156 2.6 5.2 0.00 0.25 0.00 88 1012.5
20260831131534 72 155 2.6 6.1 0.00 0.28 0.00 88 1012.5
20260831130530 72 152 1.7 3.5 0.00 0.29 0.00 88 1012.3
20260831125526 72 152 0.9 1.7 0.00 0.30 0.00 88 1012.3
20260831124522 72 155 1.7 2.6 0.00 0.31 0.00 88 1012.3
20260831123520 71 156 0.9 1.7 0.00 0.31 0.00 88 1012.5
20260831122535 71 156 0.9 1.7 0.00 0.31 0.00 88 1012.5
20260831121530 71 156 0.9 0.9 0.00 0.32 0.00 88 1012.5
20260831120527 71 156 0.0 0.9 0.00 0.32 0.00 88 1012.6
20260831115524 71 156 0.0 0.9 0.00 0.32 0.00 88 1012.6
20260831114519 71 156 0.9 1.7 0.00 0.32 0.00 88 1012.6
20260831113515 70 156 0.9 1.7 0.00 0.32 0.00 88 1012.6
20260831112532 70 156 0.0 0.9 0.00 0.32 0.00 88 1012.7
20260831111527 70 156 0.0 0.9 0.00 0.32 0.00 88 1012.5
20260831110525 70 0.0 0.0 0.00 0.32 0.00 87 1012.5
20260831105520 70 0.0 0.0 0.00 0.32 0.00 87 1012.6
20260831104518 70 0.0 0.0 0.00 0.33 0.00 87 1012.6
20260831103532 70 0.0 0.0 0.00 0.33 0.00 87 1012.4
20260831102528 70 0.0 0.0 0.00 0.34 0.00 87 1012.4
20260831101525 70 156 0.9 1.7 0.00 0.34 0.00 87 1012.4
20260831100523 70 156 0.0 0.9 0.00 0.35 0.00 87 1012.4
20260831095517 70 0.0 0.0 0.00 0.35 0.00 87 1012.4
20260831094553 70 156 0.9 1.7 0.00 0.37 0.00 87 1012.3
20260831093529 70 156 0.0 0.9 0.00 0.37 0.00 87 1012.5
20260831092547 70 156 0.0 0.9 0.00 0.37 0.00 86 1012.5
20260831091522 70 0.0 0.0 0.00 0.37 0.00 86 1012.6
20260831090518 70 0.0 0.0 0.00 0.37 0.00 86 1012.5
20260831085534 70 0.0 0.0 0.00 0.37 0.00 86 1012.3
20260831084530 70 0.0 0.0 0.00 0.37 0.00 86 1012.2
20260831083548 70 0.0 0.0 0.00 0.37 0.00 86 1012.0
20260831082524 70 0.0 0.0 0.00 0.38 0.00 86 1012.1
20260831081601 70 0.0 0.0 0.00 0.38 0.00 86 1012.2
20260831080535 70 156 0.0 0.9 0.00 0.38 0.00 86 1012.2
20260831075531 70 156 0.0 0.9 0.00 0.38 0.00 86 1012.2
20260831074527 71 0.0 0.0 0.00 0.38 0.00 86 1012.3
20260831073543 71 0.0 0.0 0.00 0.38 0.00 86 1012.4
20260831072519 71 0.0 0.0 0.00 0.38 0.00 86 1012.5
20260831071517 71 0.0 0.0 0.00 0.38 0.00 86 1012.5
20260831070532 71 156 0.0 0.9 0.00 0.38 0.00 86 1012.7
20260831065528 71 156 0.0 1.7 0.00 0.38 0.00 86 1012.7
20260831064524 71 156 0.0 1.7 0.00 0.38 0.00 86 1012.6
20260831063520 71 156 0.9 1.7 0.00 0.38 0.00 86 1012.7
20260831062516 71 156 0.9 1.7 0.00 0.38 0.00 86 1012.8
20260831061532 71 156 1.7 2.6 0.00 0.38 0.00 86 1012.7
20260831060528 71 155 0.9 1.7 0.00 0.38 0.00 86 1012.8
20260831055606 71 155 0.0 1.7 0.00 0.38 0.00 86 1013.0
20260831054520 71 0.0 0.0 0.00 0.38 0.00 86 1013.1
20260831053557 71 155 0.0 0.9 0.00 0.38 0.00 86 1013.1
20260831052533 71 154 0.0 1.7 0.00 0.38 0.00 86 1013.1
20260831051531 71 156 0.9 1.7 0.00 0.38 0.00 86 1013.0
20260831050525 71 158 0.9 3.5 0.00 0.38 0.00 86 1013.1
20260831045522 71 156 0.0 1.7 0.00 0.38 0.00 86 1013.1
20260831044517 71 156 0.9 2.6 0.00 0.38 0.00 86 1013.1
20260831043533 71 155 0.9 1.7 0.00 0.38 0.00 86 1013.1
20260831042529 72 149 0.0 1.7 0.00 0.38 0.00 86 1013.0
20260831041606 72 138 0.9 1.7 0.00 0.38 0.00 87 1013.1
20260831040520 72 130 0.9 2.6 0.00 0.38 0.00 87 1013.0
20260831035516 72 132 1.7 5.2 0.00 0.38 0.38 87 1013.0
20260831034533 72 130 1.7 3.5 0.00 0.38 0.38 87 1013.0
20260831033528 72 129 1.7 3.5 0.00 0.38 0.38 87 1013.0
20260831032524 72 130 2.6 3.5 0.00 0.38 0.38 87 1013.1
20260831031521 72 131 2.6 5.2 0.00 0.38 0.38 87 1013.1
20260831030517 72 129 2.6 6.1 0.00 0.38 0.38 87 1013.0
20260831025533 72 130 3.5 7.0 0.00 0.38 0.38 87 1012.9
20260831024530 72 129 2.6 6.1 0.00 0.38 0.38 88 1013.1
20260831023525 72 127 2.6 5.2 0.00 0.38 0.38 88 1013.0
20260831022521 72 125 3.5 7.8 0.00 0.38 0.38 88 1013.0
20260831021517 72 127 3.5 7.8 0.00 0.38 0.38 88 1013.0
20260831020534 71 128 4.3 7.8 0.00 0.38 0.38 88 1012.9
20260831015530 71 127 3.5 7.0 0.00 0.38 0.38 88 1013.0
20260831014526 71 127 3.5 7.0 0.00 0.38 0.38 88 1013.0
20260831013542 71 127 3.5 7.8 0.00 0.38 0.38 88 1012.9
20260831012519 71 127 3.5 7.8 0.00 0.38 0.38 88 1013.0
20260831011534 71 128 3.5 5.2 0.00 0.38 0.38 88 1013.0
20260831010530 71 123 3.5 7.0 0.00 0.38 0.38 88 1013.0
20260831005527 71 125 3.5 7.8 0.00 0.38 0.38 88 1013.0
20260831004524 71 124 4.3 8.7 0.00 0.38 0.38 88 1012.9
20260831003520 71 129 3.5 7.0 0.00 0.38 0.38 88 1012.7
20260831002535 71 127 3.5 8.7 0.00 0.38 0.38 88 1012.6
20260831001531 71 128 4.3 8.7 0.00 0.38 0.38 87 1012.7